Regional Weather Roundup
Issued by NWS Mt. Holly, NJ

Home | Current Version | Previous Version | Text Only | Print | Product List | Glossary On
Versions: 1 2 3 4 5 6 7 8 9 10 11 12 13 14 15 16 17 18 19 20 21 22 23 24 25 26 27
000
ASUS41 KPHI 170910
RWRPHI

REGIONAL WEATHER ROUNDUP
NATIONAL WEATHER SERVICE MOUNT HOLLY NJ
500 AM EDT THU APR 17 2014

NOTE:  "FAIR" INDICATES FEW OR NO CLOUDS BELOW 12,000 FEET WITH NO
SIGNIFICANT WEATHER AND/OR OBSTRUCTIONS TO VISIBILITY.

 * = STATION DOES NOT REPORT PRECIPITATION (E.G. RAIN, SNOW, ETC.)
        OR FOG.

NJZ015>026-171000-
SOUTHERN NEW JERSEY

CITY           SKY/WX    TMP DP  RH WIND       PRES   REMARKS
POMONA         CLEAR     29  25  85 N6        30.58R WCI  23
RIO GRANDE*    CLEAR     34  27  75 N6        30.58R WCI  29
MILLVILLE      CLEAR     31  25  78 NE3       30.58R
WRIGHTSTOWN    CLEAR     30  22  72 NE6       30.57S WCI  24
MOUNT HOLLY    CLEAR     33  22  63 NE3       30.60R
TRENTON        CLEAR     34  18  52 NE9G20    30.59S WCI  27

$$
NJZ001>014-171000-
NORTHERN NEW JERSEY

CITY           SKY/WX    TMP DP  RH WIND       PRES   REMARKS
SUSSEX           N/A     31  19  61 NE5       30.62S WCI  26
ANDOVER*         N/A     30  22  72 NE6       30.62R WCI  24
MORRISTOWN     CLEAR     32  21  64 N3        30.64R
NEWARK         PTCLDY    34  21  59 N10       30.63S WCI  26
TETERBORO      CLEAR     37  18  46 NE6       30.63S WCI  32
CALDWELL       CLEAR     32  18  56 NE3       30.64S
SOMERVILLE     CLEAR     34  16  47 VRB3      30.60S
ALLAIRE*       CLEAR     37  25  60 NE8       30.59S WCI  31
TOMS RIVER*    CLEAR     28  25  86 CALM      30.59S

$$
PAZ043-044-047-054-055-060>062-066>071-171000-
EASTERN PENNSYLVANIA

CITY           SKY/WX    TMP DP  RH WIND       PRES   REMARKS
PHILADELPHIA   CLEAR     37  17  44 NE9       30.61R WCI  30
NORTH PHILA    CLEAR     33  18  53 NE8       30.61S WCI  26
BLUE BELL      CLEAR     34  19  55 NE3       30.58S
DOYLESTOWN     CLEAR     32  18  56 NE6       30.58F WCI  26
QUAKERTOWN*    CLEAR     30  18  59 NE3       30.60S
POTTSTOWN      CLEAR     32  19  58 NE8       30.60S WCI  25
LANCASTER      CLEAR     30  19  63 E7        30.57S WCI  23
READING        CLEAR     32  19  58 N5        30.59R WCI  27
ALLENTOWN      CLEAR     29  18  63 NE7       30.60S WCI  22
MOUNT POCONO   CLEAR     27  13  55 E8        30.53S WCI  19
HAZLETON       CLEAR     28  14  54 E5        30.56S WCI  23
WILKES BARRE   PTCLDY    29  18  63 NE5       30.57S WCI  24

$$
DEZALL-MDZ008-012-015-019-020-171000-
DELAWARE AND EASTERN MARYLAND

CITY           SKY/WX    TMP DP  RH WIND       PRES   REMARKS
WILMINGTON     CLEAR     38  22  52 E8        30.60R WCI  32
DOVER          CLEAR     39  28  64 NE10      30.53F WCI  32
GEORGETOWN     CLEAR     32  28  85 CALM      30.56S
EASTON         CLEAR     33  32  97 CALM      30.60S
PATUXENT       CLEAR     37  29  72 NE6       30.55S WCI  32
OCEAN CITY     CLEAR     42  29  59 E8        30.55R
WALLOPS ISLAND CLEAR     43  30  60 E15       30.54R
CAMBRIDGE      CLEAR     34  32  93 NE3       30.56S
SALISBURY      CLEAR     34  29  82 CALM      30.55R

$$
PAZ001-021-NYZ056-072-MDZ011-DCZ001-171000-
OTHER NEARBY LOCATIONS

CITY           SKY/WX    TMP DP  RH WIND       PRES   REMARKS
HARRISBURG     PTCLDY    34  19  54 CALM      30.58R
STATE COLLEGE  CLEAR     32  11  42 E5        30.52F WCI  27
WILLIAMSPORT   CLEAR     28  20  71 N3        30.58S
BINGHAMTON     CLEAR     24  14  65 E7        30.54S WCI  16
NEW YORK CITY  CLEAR     37  19  48 E9        30.65S WCI  30
BALTIMORE      PTCLDY    32  26  78 CALM      30.57R
WASHINGTON DC  CLEAR     40  28  62 NE5       30.58R

$$



USA.gov is the U.S. government's official web portal to all federal, state and local government web resources and services.